This is the latest recevied weather packets stored in our database for station/object F4LPU-13. If no packets are shown the sender has not sent any weather packets the latest 10 day(s).
| Time | Temp. | Humidity | Pressure | Rain* | Wind** | Luminosity | Snow |
|---|---|---|---|---|---|---|---|
| 1788206463 | 20.56° C | 4% | - | 0 mm | - | - | - |
| 1788206102 | 23.33° C | 3% | - | 0 mm | - | - | - |
| 1788203113 | 23.33° C | 3% | - | 0 mm | - | - | - |
| 1788200102 | 23.33° C | 3% | - | 0 mm | - | - | - |
| 1788197102 | 25.56° C | 3% | - | 0 mm | - | - | - |
| 1788194102 | 25.56° C | 3% | - | 0 mm | - | - | - |
| 1788191102 | 26.11° C | 3% | - | 0 mm | - | - | - |
| 1788188102 | 26.11° C | 3% | - | 0 mm | - | - | - |
| 1788185102 | 26.11° C | 3% | - | 0 mm | - | - | - |
| 1788182102 | 25° C | 3% | - | 0 mm | - | - | - |
| 1788179102 | 25° C | 3% | - | 0 mm | - | - | - |
| 1788176102 | 23.89° C | 4% | - | 0 mm | - | - | - |
| 1788173102 | 23.89° C | 4% | - | 0 mm | - | - | - |
| 1788170102 | 20° C | 5% | - | 0 mm | - | - | - |
| 1788167102 | 20° C | 5% | - | 0 mm | - | - | - |
| 1788164102 | 20° C | 5% | - | 0 mm | - | - | - |
| 1788161102 | 15.56° C | 8% | - | 0 mm | - | - | - |
| 1788158102 | 15.56° C | 8% | - | 0 mm | - | - | - |
| 1788155102 | 15.56° C | 9% | - | 0 mm | - | - | - |
| 1788152102 | 23.33° C | 5% | - | 0 mm | - | - | - |
| 1788120063 | 23.33° C | 5% | - | 0 mm | - | - | - |
| 1788119702 | 27.22° C | 3% | - | 0 mm | - | - | - |
| 1788116702 | 27.22° C | 3% | - | 0 mm | - | - | - |
| 1788113702 | 27.22° C | 3% | - | 0 mm | - | - | - |
| 1788110702 | 28.33° C | 4% | - | 0 mm | - | - | - |
* Rain latest hour (hover to see other rain measurements)
** Current wind speed in m/s (hover to see current wind gust speed)